Starlink 31779

operational
NORAD ID: 59744 Int'l Des: 2024-090 Owner: SPXS Country: US Constellation: starlink
LEOCIRCULAR

About Starlink 31779

Description loading...

Live Position

Loading 3D Globe...

Upcoming Passes

Altitude History

Altitude vs Time

uPlot chart will show altitude changes over time

Two-Line Element Set

1 59744U 24090Q 25259.24592451 .00002307 00000-0 93332-4 0 9995
2 59744 43.0040 88.4538 0001823 273.5009 86.5634 15.27577046 76760
Epoch: Sep 16, 2025 • Age: 7 hours

Current Status

Altitude 483.4 km
Velocity 7.63 km/s
Sub-Earth Point -3.84°S, 80.35°E
Launch Date May 13, 2024
Age 1.3 years
Type internet

Technical Details

Classification Payload
Mass 730.00 kg
Dry Mass 700.00 kg
Total Mass 730.00 kg
Length 0.30 m
Diameter 4.10 m
Span 29.00 m
Shape Box + pan
Manufacturer SPXS
Bus Type Starlink V2M
Phase Status In Orbit
Owner/State SPXS/US

Large Constellations

Loading constellations...